Location: Unspecified
(45.4615°N, 74.0512°W)
Time: 22:10:24
(UTC-04:00)

CZ-3 Stage 3 - Visible Passes

Search period start: 23 April 2019 00:00
Search period end: 03 May 2019 00:00
Orbit: 493 x 34699 km, 30.5° (Epoch: 22 April)

Date Brightness Start Highest point End Pass type
(mag) Time Alt. Az. Time Alt. Az. Time Alt. Az.
23 Apr 6.0 04:32:33 16° WSW 04:51:34 62° SSE 13:13:06 10° S visible
24 Apr 5.9 01:03:56 27° SE 01:06:06 27° ESE 08:31:51 10° SE visible
26 Apr 6.0 04:22:25 16° WSW 04:40:59 62° S 13:00:48 10° S visible
27 Apr 5.9 00:53:48 27° SE 00:55:38 27° SE 08:13:50 10° SE visible
29 Apr 6.0 04:12:15 16° WSW 04:30:26 62° S 12:48:25 10° S visible
30 Apr 5.8 00:43:37 27° SE 00:45:10 28° SE 07:54:13 10° SE visible
02 May 6.0 04:02:02 16° WSW 04:19:53 62° S 12:35:56 10° S visible
